[[{"header":{"parameterUnit":"m.s-1","parameterCategory":1,"la1":30.2991,"la2":30.254,"lo1":-89.0895,"lo2":-89.0444,"dy":0.0017,"dx":0.0017,"nx":28,"ny":28,"refTime":"2026-01-02T03:00:00:Z","depth":0,"parameterNumber":2,"parameterNumberName":"U-component_of_WINDS"},"data":[0,0,0,0,0,0,0,0,0,0,0,0,0,0,0,0,0,0,0,0,0,0,0,0,0,0,0,0,0,0,0,0,0,0,0,0,0,0,0,0,0,0,0,0,0,0,0,0,0,0,0,0,0,0,0,0,0,0,2.9538,2.9539,0,2.9649,2.9651,2.9652,2.9644,2.9643,2.9641,2.964,2.9758,2.9763,2.9768,0,0,0,0,0,0,0,0,0,0,0,0,0,2.9324,2.9328,2.9538,2.9539,2.954,2.9649,2.9651,2.9652,2.9645,2.9643,2.9641,2.9639,2.9757,2.9762,2.9768,0,0,0,0,0,0,0,0,0,0,0,0,0,2.9425,2.9329,2.9537,2.955,2.9552,2.9649,2.9651,2.9653,2.9645,2.9643,2.964,2.9638,2.9755,2.9762,2.9769,2.9862,0,0,2.979,2.9793,0,0,0,0,0,0,0,0,2.9419,2.9432,2.9547,2.9549,2.9552,2.963,2.9619,2.9723,2.9646,2.961,2.964,2.9637,2.9718,2.9728,2.9755,2.9868,2.9873,2.9791,2.9795,2.9798,2.98,0,0,0,0,0,0,0,2.9412,2.9428,2.9582,2.9548,2.9551,2.9552,2.9563,2.9639,2.9677,2.9613,2.9613,2.9626,2.9719,2.9748,2.9757,2.9874,2.9791,2.9797,2.9801,2.9804,3.0074,3.0077,0,0,0,0,0,0,2.9402,2.9422,2.9578,2.9585,2.9478,2.9558,2.957,2.9608,2.9676,2.9684,2.9628,2.9625,2.9737,2.9749,2.9761,2.9877,2.9798,2.9805,2.9809,3.0071,3.0074,3.0078,0,0,0,0,0,0,2.9397,2.9416,2.9574,2.9504,2.9524,2.9564,2.9606,2.9611,2.964,2.9687,2.9694,2.965,2.9735,2.9751,2.9838,2.9881,2.9808,2.9814,3.0067,3.0072,3.0076,3.0108,0,0,0,0,0,0,2.9391,2.9414,2.9448,2.9504,2.9528,2.9646,2.9608,2.9615,2.9651,2.9649,2.9709,2.9717,2.9735,2.9827,2.9845,2.989,2.982,3.0064,3.0069,3.0075,3.0104,3.0113,3.0122,0,0,0,0,0,2.9383,2.9453,2.945,2.9469,2.9571,2.9649,2.9662,2.968,2.9655,2.9691,2.9722,2.9715,2.9874,2.9836,2.9856,2.9903,3.0061,3.0068,3.0074,3.01,3.0111,3.0122,0,0,0,0,0,0,2.9401,2.946,2.9457,2.9547,2.9593,2.9647,2.9693,2.9691,2.9746,2.9741,2.9762,2.9776,2.9863,2.9892,2.9849,2.9999,2.9964,2.9975,2.9977,2.9989,2.9998,2.9989,2.9826,0,0,0,0,0,2.9415,2.9472,2.9521,2.9596,2.9619,2.9652,2.9687,2.9696,2.9745,2.9765,2.9802,2.9851,2.9912,2.9952,3.0011,3.0108,3.0123,3.0151,3.016,3.0167,3.0177,3.0233,3.0247,3.0099,3.0099,3.0099,0,0,2.9445,2.9485,2.9519,2.96,2.9637,2.9698,2.9668,2.9733,2.9779,2.9775,2.9859,2.9888,2.9945,3.0038,3.008,3.0064,3.0221,3.0176,3.0181,3.0187,3.0241,3.0255,3.0268,3.0104,3.0103,3.0102,0,0,2.9531,2.9566,2.9633,2.9671,2.9727,2.9749,2.9765,2.9821,2.984,2.9924,2.9923,2.998,3.0083,3.0125,3.0159,3.0265,3.0262,3.0284,3.0331,3.0386,3.0397,3.0408,3.0447,3.0461,3.0293,3.0293,3.0293,0,2.9562,2.9651,2.9668,2.9734,2.9771,2.977,2.984,2.9876,2.9949,2.9976,2.9956,3.0089,3.0127,3.0231,3.0257,3.0284,3.0305,3.0276,3.0394,3.0405,3.0415,3.0453,3.0467,3.0295,3.0295,3.0295,3.0294,0,2.9687,2.975,2.9798,2.9868,2.991,2.9977,3.0007,3.0048,3.0055,3.008,3.0168,3.0214,3.0283,3.0309,3.0316,3.0415,3.0404,3.0389,3.0355,3.0431,3.0467,3.0482,3.0298,3.0298,3.0297,3.0296,0,0,2.9786,2.9866,2.9883,2.9916,2.998,3.0029,3.0098,3.0165,3.0202,3.0253,3.0313,3.0403,3.0391,3.043,3.0443,3.0491,3.0574,3.0471,3.0473,3.049,3.0689,3.07,3.0716,3.0573,3.0576,3.0578,3.0685,0,2.9879,2.9999,3.0018,3.0125,3.0185,3.0187,3.0248,3.0294,3.0321,3.0377,3.0406,3.047,3.0448,3.0473,3.052,3.0554,3.0615,3.0546,3.0631,3.0634,3.0617,3.0735,3.0746,3.0844,3.0699,3.0701,3.0703,0,3.0003,3.0058,3.0171,3.0229,3.0254,3.0308,3.0373,3.0426,3.048,3.0496,3.0542,3.0549,3.0624,3.0587,3.0691,3.0644,3.0681,3.0703,3.0707,3.0716,3.0673,3.0748,3.0876,3.0891,3.0725,3.0723,3.0722,0,3.0066,3.0168,3.0249,3.0277,3.0346,3.0385,3.0416,3.0467,3.0508,3.0565,3.0592,3.0657,3.0694,3.0746,3.0772,3.0742,3.0876,3.084,3.0893,3.0893,3.0921,3.0919,3.1057,3.0943,3.0943,3.0943,3.0942,0,3.0168,3.0238,3.0278,3.0328,3.0407,3.043,3.0508,3.0538,3.0585,3.0643,3.065,3.0704,3.0735,3.0795,3.0817,3.0902,3.0918,3.0934,3.0939,3.0934,3.0932,3.0958,3.0952,3.0947,3.0946,3.0945,3.0944,0,3.0251,3.028,3.0369,3.0428,3.0445,3.0501,3.0553,3.0603,3.063,3.0703,3.0722,3.0765,3.0836,3.0868,3.0956,3.097,3.1068,3.1067,3.1049,3.1051,3.1103,3.1098,3.1263,3.1287,3.1156,3.1157,3.1158,0,3.0314,3.0368,3.0433,3.0472,3.0504,3.0566,3.0608,3.0633,3.0676,3.0745,3.0787,3.0859,3.0917,3.1032,3.1072,3.114,3.1142,3.1196,3.1153,3.1147,3.1145,3.1141,3.1148,3.1203,3.1205,3.1206,3.1207,0,3.0424,3.0437,3.0495,3.0561,3.061,3.0662,3.0714,3.0746,3.078,3.0829,3.0901,3.0947,3.1038,3.1109,3.1181,3.1215,3.1218,3.122,3.1236,3.1231,3.1219,3.1228,3.1071,3.1216,3.1215,3.1214,3.1214,3.1213,3.05,3.0549,3.0603,3.0669,3.0711,3.076,3.081,3.0844,3.0905,3.098,3.0992,3.1071,3.1127,3.1223,3.1261,3.1324,3.1311,3.1334,3.134,3.1346,3.1349,3.1209,3.1337,3.1337,3.1337,3.1337,3.1336,0,3.0612,3.0647,3.0708,3.078,3.0833,3.083,3.0888,3.0933,3.1001,3.1054,3.1112,3.1197,3.1268,3.1314,3.1386,3.1428,3.1431,3.1446,3.1444,3.1452,3.1356,3.1335,3.1443,3.1443,3.1443,3.1443,3.1443,3.1443,3.0676,3.0759,3.0779,3.0884,3.092,3.0996,3.1029,3.1076,3.1118,3.1212,3.1271,3.1301,3.1352,3.1428,3.1494,3.1506,3.1533,3.1549,3.156,3.147,3.1459,3.1448,3.1429,3.1554,3.1554,3.1651,3.1652,3.1653]},{"header":{"parameterUnit":"m.s-1","parameterCategory":1,"la1":30.2991,"la2":30.254,"lo1":-89.0895,"lo2":-89.0444,"dy":0.0017,"dx":0.0017,"nx":28,"ny":28,"refTime":"2026-01-02T03:00:00:Z","depth":0,"parameterNumber":3,"parameterNumberName":"V-component_of_WINDS"},"data":[0,0,0,0,0,0,0,0,0,0,0,0,0,0,0,0,0,0,0,0,0,0,0,0,0,0,0,0,0,0,0,0,0,0,0,0,0,0,0,0,0,0,0,0,0,0,0,0,0,0,0,0,0,0,0,0,0,0,2.147,2.1471,0,2.1524,2.1525,2.1526,2.1537,2.1536,2.1536,2.1536,2.1589,2.159,2.1592,0,0,0,0,0,0,0,0,0,0,0,0,0,2.1372,2.1374,2.147,2.1471,2.1472,2.1524,2.1525,2.1526,2.1537,2.1536,2.1536,2.1535,2.1588,2.159,2.1592,0,0,0,0,0,0,0,0,0,0,0,0,0,2.1419,2.1375,2.147,2.1483,2.1485,2.1524,2.1525,2.1526,2.1537,2.1536,2.1536,2.1535,2.1587,2.159,2.1592,2.1621,0,0,2.1601,2.1602,0,0,0,0,0,0,0,0,2.1417,2.1423,2.1481,2.1483,2.1485,2.1523,2.151,2.1558,2.1537,2.1517,2.1536,2.1535,2.1567,2.1571,2.1583,2.1624,2.1626,2.1601,2.1603,2.1604,2.1604,0,0,0,0,0,0,0,2.1413,2.1421,2.1492,2.1482,2.1484,2.1485,2.1491,2.1519,2.1545,2.1519,2.152,2.1526,2.1568,2.158,2.1584,2.1627,2.1601,2.1603,2.1605,2.1606,2.1691,2.1691,0,0,0,0,0,0,2.1408,2.1418,2.149,2.1493,2.1449,2.1488,2.1494,2.1511,2.1545,2.1549,2.1527,2.1527,2.1576,2.1581,2.1586,2.162,2.1604,2.1606,2.1608,2.169,2.1691,2.1692,0,0,0,0,0,0,2.1406,2.1415,2.1488,2.1456,2.1465,2.149,2.1509,2.1513,2.1525,2.1551,2.1555,2.1535,2.1576,2.1582,2.1612,2.1622,2.1607,2.161,2.1689,2.169,2.1691,2.169,0,0,0,0,0,0,2.1403,2.1414,2.1426,2.1456,2.1467,2.1514,2.151,2.1514,2.153,2.153,2.1559,2.1563,2.1576,2.1608,2.1615,2.1626,2.1612,2.1689,2.169,2.1691,2.1689,2.1691,2.1692,0,0,0,0,0,2.14,2.1423,2.1427,2.1435,2.1483,2.1515,2.1521,2.1535,2.1531,2.1542,2.1558,2.1562,2.162,2.1611,2.1618,2.1631,2.1688,2.1689,2.1691,2.1688,2.169,2.1692,0,0,0,0,0,0,2.1394,2.1428,2.1432,2.1466,2.1487,2.1516,2.1532,2.1537,2.1559,2.1559,2.1575,2.1581,2.1609,2.1623,2.1612,2.1659,2.1654,2.1657,2.1649,2.1651,2.1652,2.1648,2.1614,0,0,0,0,0,2.1396,2.142,2.1448,2.1476,2.1486,2.1507,2.1521,2.1531,2.1553,2.1562,2.158,2.1601,2.1623,2.1638,2.166,2.1691,2.1696,2.1703,2.1704,2.1705,2.1707,2.1723,2.1725,2.1696,2.1696,2.1696,0,0,2.1402,2.1424,2.1438,2.1475,2.1493,2.1515,2.1515,2.1539,2.1556,2.1565,2.1594,2.1608,2.1632,2.1662,2.1676,2.1674,2.1716,2.1707,2.1708,2.171,2.1724,2.1727,2.1729,2.1697,2.1697,2.1697,0,0,2.1424,2.1444,2.1468,2.1485,2.1512,2.1525,2.1531,2.1559,2.1568,2.1598,2.1605,2.1624,2.1663,2.1679,2.1693,2.1718,2.1722,2.1725,2.1733,2.1747,2.1749,2.1751,2.1759,2.1762,2.1727,2.1727,2.1727,0,2.1428,2.1464,2.1479,2.1503,2.1519,2.1528,2.1552,2.1567,2.16,2.1609,2.1607,2.1655,2.1672,2.1704,2.171,2.1721,2.1727,2.1722,2.1748,2.175,2.1752,2.176,2.1763,2.1727,2.1727,2.1727,2.1727,0,2.1466,2.1491,2.1507,2.1538,2.1555,2.1579,2.1596,2.1611,2.1618,2.1631,2.1659,2.168,2.1706,2.1714,2.1721,2.1747,2.1745,2.1745,2.174,2.1755,2.1762,2.1765,2.1727,2.1727,2.1727,2.1727,0,0,2.1487,2.1525,2.1531,2.1544,2.1573,2.1592,2.1615,2.164,2.1652,2.1673,2.1692,2.1724,2.1724,2.1739,2.1747,2.176,2.1777,2.1759,2.1759,2.176,2.1805,2.1804,2.1808,2.178,2.178,2.1781,2.1802,0,2.1512,2.1555,2.1568,2.1603,2.1625,2.1633,2.1653,2.1672,2.1684,2.1703,2.1716,2.1738,2.1737,2.1745,2.1758,2.1772,2.1786,2.1771,2.1796,2.1797,2.1789,2.1812,2.1812,2.1831,2.1806,2.1806,2.1807,0,2.1547,2.1569,2.1606,2.1631,2.164,2.1658,2.1681,2.17,2.1721,2.1729,2.1744,2.1752,2.1774,2.1768,2.1798,2.1787,2.1798,2.1806,2.1807,2.181,2.1802,2.1814,2.1838,2.184,2.1811,2.1811,2.1811,0,2.1557,2.1596,2.1623,2.1634,2.1664,2.1675,2.1688,2.1708,2.1722,2.1742,2.1751,2.1773,2.1785,2.1801,2.1813,2.1808,2.1841,2.1837,2.1847,2.1847,2.1854,2.1854,2.1879,2.1862,2.1862,2.1862,2.1862,0,2.1583,2.1605,2.1627,2.1644,2.1668,2.1682,2.1705,2.1718,2.1736,2.1754,2.1762,2.1778,2.1794,2.1811,2.1821,2.1843,2.1849,2.1855,2.1857,2.1854,2.1853,2.1861,2.1859,2.1863,2.1862,2.1862,2.1862,0,2.1599,2.1615,2.1644,2.1669,2.1676,2.1693,2.1714,2.1729,2.1741,2.1763,2.1769,2.1787,2.1808,2.1822,2.1849,2.1855,2.1879,2.1882,2.1873,2.1874,2.1883,2.1882,2.1915,2.1919,2.1899,2.1899,2.1899,0,2.1615,2.1632,2.1658,2.1671,2.1684,2.1704,2.1718,2.1732,2.1746,2.177,2.1782,2.1803,2.1822,2.1855,2.187,2.189,2.1892,2.1902,2.1895,2.1891,2.1891,2.1889,2.189,2.1903,2.1903,2.1903,2.1903,0,2.164,2.1646,2.1667,2.1689,2.1705,2.1724,2.1742,2.1751,2.1768,2.1783,2.1805,2.1819,2.1846,2.1867,2.1888,2.1899,2.1903,2.1905,2.1909,2.1905,2.1899,2.1902,2.1875,2.1904,2.1904,2.1904,2.1904,2.1904,2.1655,2.167,2.1691,2.1712,2.1727,2.1744,2.1759,2.1772,2.1791,2.1815,2.1821,2.1844,2.1862,2.189,2.1902,2.1919,2.1917,2.1923,2.1924,2.1925,2.1924,2.1897,2.1923,2.1923,2.1923,2.1923,2.1923,0,2.168,2.1693,2.1713,2.1738,2.1755,2.1758,2.1777,2.179,2.181,2.1827,2.1845,2.1869,2.1888,2.1904,2.1924,2.1934,2.1936,2.1939,2.1938,2.194,2.1925,2.1919,2.1937,2.1937,2.1937,2.1937,2.1937,2.1937,2.1695,2.172,2.1728,2.176,2.1773,2.1795,2.1806,2.182,2.1834,2.186,2.1877,2.1887,2.1903,2.1924,2.1941,2.1945,2.1952,2.1954,2.1958,2.1943,2.1942,2.194,2.1935,2.1955,2.1955,2.1972,2.1972,2.1972]}]]